Location: Mentone
(34.5413°N, 85.5351°W)
Time: 19:51:41
(UTC-05:00)

ADEOS Rocket - Visible Passes

Search period start: 15 September 2014 00:00
Search period end: 25 September 2014 00:00
Orbit: 860 x 1307 km, 98.7° (Epoch: 14 September)

Date Brightness Start Highest point End Pass type
(mag) Time Alt. Az. Time Alt. Az. Time Alt. Az.
15 Sep 4.4 20:18:05 19° ENE 20:18:13 19° ENE 20:22:28 10° NNE visible
15 Sep 4.1 22:05:03 40° NW 22:05:03 40° NW 22:09:19 10° NNW visible
16 Sep 3.5 21:15:35 47° NNE 21:15:35 47° NNE 21:20:31 10° N visible
16 Sep 5.5 23:02:33 15° WNW 23:02:33 15° WNW 23:04:18 10° NW visible
17 Sep 4.3 20:26:08 23° ENE 20:26:08 23° ENE 20:30:45 10° NNE visible
17 Sep 4.4 22:13:06 35° NW 22:13:06 35° NW 22:17:06 10° NNW visible
18 Sep 3.6 21:23:38 49° NNE 21:23:38 49° NNE 21:28:29 10° N visible
18 Sep 5.6 23:10:36 12° WNW 23:10:36 12° WNW 23:11:34 10° NW visible
19 Sep 4.2 20:34:11 27° NE 20:34:11 27° NE 20:38:57 10° N visible
19 Sep 4.7 22:21:09 30° NW 22:21:09 30° NW 22:24:52 10° NNW visible
20 Sep 4.9 19:44:44 11° ENE 19:45:36 11° NE 19:47:03 10° NE visible
20 Sep 3.7 21:31:42 48° N 21:31:42 48° N 21:36:26 10° N visible
21 Sep 4.1 20:42:15 31° NE 20:42:15 31° NE 20:47:05 10° N visible
21 Sep 4.9 22:29:13 26° NW 22:29:13 26° NW 22:32:36 10° NNW visible
22 Sep 4.8 19:52:48 13° ENE 19:53:14 13° ENE 19:56:12 10° NNE visible
22 Sep 3.9 21:39:46 45° NNW 21:39:46 45° NNW 21:44:22 10° NNW visible
23 Sep 4.0 20:50:19 35° NE 20:50:19 35° NE 20:55:11 10° N visible
23 Sep 5.1 22:37:17 22° NW 22:37:17 22° NW 22:40:17 10° NW visible
24 Sep 4.7 20:00:53 16° ENE 20:00:53 16° ENE 20:04:49 10° NNE visible
24 Sep 4.2 21:47:51 42° NNW 21:47:51 42° NNW 21:52:16 10° NNW visible
